Location: Dreilärchen
(47.9312°N, 8.6113°E)
Time: 02:01:10
(UTC+00:00)

USA 229 DEB - Pass Details

Date: 26 May 2022
Orbit: 934 x 1278 km, 63.4° (Epoch: 24 May)

Event Time Altitude Azimuth Distance (km) Brightness Sun altitude
Rises 01:01:22 0° 315° (NW) 3,997 7.0 -17.5°
Reaches altitude 10° 01:04:11 10° 308° (NW) 3,083 6.3 -17.3°
Maximum altitude 01:10:53 38° 244° (WSW) 1,786 4.5 -16.8°
Enters shadow 01:15:06 22° 193° (SSW) 2,427 5.0 -16.5°
